User: anonymous   Login
Location: Unspecified
(0.0000°N, 0.0000°E)
Time: 11:33:43
(UTC+00:00)
Language:

CORIOLIS - Orbit

View from above orbital plane
View from above orbital plane
View from above satellite
View from above satellite

Ground track
Ground track

The orbit data is extracted from the following two-line orbital elements,

1 27640U 03001A   18317.77910194 -.00000008  00000-0  17068-4 0  9996
2 27640  98.7367 325.8368 0013076 268.9920 200.4212 14.18993190820926
Epoch (UTC): 13 November 2018 18:41:54
Eccentricity: 0.0013076
inclination: 98.7367°
perigee height: 819 km
apogee height: 838 km
right ascension of ascending node: 325.8368°
argument of perigee: 268.9920°
revolutions per day: 14.18993190
mean anomaly at epoch: 200.4212°
orbit number at epoch: 82092

The dashed part of the orbit path shows where the satellite is in the earth's shadow,  

DLR